Location: Rioux
(40.7500°S, 175.7500°E)
Time: 10:45:53
(UTC+00:00)

Meteor 1-26 Rocket - Pass Details

Date: 12 June 2024
Orbit: 803 x 930 km, 81.3° (Epoch: 20 July)

Event Time Altitude Azimuth Distance (km) Brightness Sun altitude
Rises 18:23:23 0° 339° (NNW) 3,335 7.3 -13.8°
Reaches altitude 10° 18:25:47 10° 335° (NNW) 2,424 6.5 -13.3°
Maximum altitude 18:31:09 55° 257° (WSW) 1,016 4.3 -12.4°
Drops below altitude 10° 18:36:47 10° 179° (S) 2,531 6.5 -11.4°
Sets 18:39:20 0° 174° (S) 3,496 7.2 -10.9°
